Sigfox identifier Datetime Temperature Humidity SNR
00393932 2018-10-09 08:38:43 20.8 39 9
00393932 2018-10-09 07:31:41 20.7 39 9.1
00393932 2018-10-09 06:24:34 20.7 38 9.1
00393932 2018-10-09 05:17:30 20.8 38 9.2
00393932 2018-10-09 01:56:24 20.6 38 9.3
00393932 2018-10-09 00:49:20 20.6 38 9.2
00393932 2018-10-08 23:42:19 20.6 38 9
00393932 2018-10-08 22:35:16 20.6 38 9
00393932 2018-10-08 21:28:15 20.6 38 9.2
00393932 2018-10-08 19:14:08 20.6 38 8.9
00393932 2018-10-08 17:00:15 20.4 38 16.8
00393932 2018-10-08 15:53:16 20.4 37 16.8
00393932 2018-10-08 13:39:11 20.4 37 16.8
00393932 2018-10-08 12:32:12 20.4 38 16.7
00393932 2018-10-08 11:25:10 20.4 38 16.7
00393932 2018-10-08 05:49:58 20.5 39 16.7
00393932 2018-10-08 01:21:54 20.6 39 16.7
00393932 2018-10-07 20:53:50 20.6 40 16.7
00393932 2018-10-07 18:39:45 20.6 40 16.7
00393932 2018-10-07 15:18:51 20.7 40 16.7
00393932 2018-10-07 13:04:51 20.7 40 16.7
00393932 2018-10-07 10:50:45 20.8 40 16.7
00393932 2018-10-07 08:36:33 20.8 40 16.7
00393932 2018-10-07 05:15:25 20.8 40 16.7
00393932 2018-10-06 22:33:20 21 40 16.7
00393932 2018-10-06 21:26:20 21 40 16.7
00393932 2018-10-06 20:19:16 21 40 16.7
00393932 2018-10-06 19:12:16 21 40 16.8
00393932 2018-10-06 18:05:12 21 40 16.8
00393932 2018-10-06 16:58:08 21 40 16.7
00393932 2018-10-06 15:51:04 21 40 16.8
00393932 2018-10-06 14:44:05 21 40 16.8
00393932 2018-10-06 12:29:58 21 40 16.8
00393932 2018-10-06 11:23:00 21 40 16.8
00393932 2018-10-06 10:15:55 21 40 16.8
00393932 2018-10-06 09:08:56 21 40 9.1
00393932 2018-10-06 06:54:52 21.1 40 9.1
00393932 2018-10-06 05:47:56 21.2 40 9.7
00393932 2018-10-06 04:40:57 21.2 40 10.2
00393932 2018-10-06 03:33:54 21.2 40 10.2
00393932 2018-10-06 02:26:59 21.2 40 10.5
00393932 2018-10-06 00:12:59 21.2 40 11
00393932 2018-10-05 20:52:09 21.1 40 11.2
00393932 2018-10-05 19:45:06 21.1 39 11.3
00393932 2018-10-05 17:30:58 21 39 11.7
00393932 2018-10-05 15:17:05 21 38 12.8
00393932 2018-10-05 05:13:12 20.7 34 12.8
00393932 2018-10-05 02:59:06 20.7 35 12.8
00393932 2018-10-05 01:51:59 20.7 35 12.9
00393932 2018-10-04 21:23:33 20.6 35 16.1
00393932 2018-10-04 19:09:20 20.6 35 16.2
00393932 2018-10-04 18:02:15 20.5 35 16.2
00393932 2018-10-04 15:48:07 20.4 35 16.1
00393932 2018-10-04 12:26:50 20.4 36 16.1
00393932 2018-10-04 11:19:39 20.4 37 16.2
00393932 2018-10-04 10:12:32 20.4 38 16.1
00393932 2018-10-04 09:05:26 20.4 38 16.2
00393932 2018-10-04 07:58:14 20.4 39 16.2
00393932 2018-10-04 05:43:59 20.4 40 16.3
00393932 2018-10-04 04:36:46 20.4 40 16.3
00393932 2018-10-04 03:29:37 20.5 40 16.3
00393932 2018-10-04 02:22:29 20.5 41 16.4
00393932 2018-10-04 01:15:18 20.6 41 16.3
00393932 2018-10-04 00:08:17 20.6 41 16.3
00393932 2018-10-03 23:01:15 20.6 41 16.3
00393932 2018-10-03 21:54:15 20.6 41 16.3
00393932 2018-10-03 20:47:10 20.6 41 16.4
00393932 2018-10-03 19:40:07 20.6 42 16.4
00393932 2018-10-03 18:33:04 20.6 42 16.4
00393932 2018-10-03 17:26:00 20.6 42 16.3
00393932 2018-10-03 16:18:56 20.6 42 15.8
00393932 2018-10-03 15:11:54 20.6 42 16
00393932 2018-10-03 14:04:49 20.6 41 16
00393932 2018-10-03 12:57:50 20.6 41 16
00393932 2018-10-03 11:50:40 20.5 42 12.8
00393932 2018-10-03 10:43:37 20.4 42 12.8
00393932 2018-10-03 08:29:28 20.2 41 13.1
00393932 2018-10-03 07:22:25 20.2 42 14.1
00393932 2018-10-03 06:15:22 20.2 42 14.1
00393932 2018-10-03 05:08:18 20.3 42 14.1
00393932 2018-10-03 04:01:16 20.4 42 14.9
00393932 2018-10-03 02:54:15 20.4 42 14.7
00393932 2018-10-03 01:47:14 20.4 42 15.4
00393932 2018-10-03 00:40:12 20.4 42 16
00393932 2018-10-02 23:33:11 20.4 42 16
00393932 2018-10-02 22:26:12 20.4 42 16
00393932 2018-10-02 21:19:13 20.4 42 16.1
00393932 2018-10-02 20:12:12 20.4 42 16.2
00393932 2018-10-02 19:05:14 20.6 42 16.2
00393932 2018-10-02 17:58:11 20.6 42 16.4
00393932 2018-10-02 14:37:02 20.6 42 16.5
00393932 2018-10-02 13:29:59 20.5 42 16.5
00393932 2018-10-02 12:22:56 20.6 44 16.5
00393932 2018-10-02 11:15:45 20.6 43 16.7
00393932 2018-10-02 10:08:37 20.4 43 16.8
00393932 2018-10-02 09:01:30 20.4 43 17.1
00393932 2018-10-02 07:54:24 20.4 41 17.2
00393932 2018-10-02 06:47:17 20.4 44 17.4
00393932 2018-10-02 05:40:09 20.4 44 17.7
00393932 2018-10-02 04:33:00 20.4 44 17.9
00393932 2018-10-02 03:25:53 20.4 44 18.2
00393932 2018-10-02 02:18:45 20.6 45 18.3
00393932 2018-10-02 01:11:37 20.5 45 17.7
00393932 2018-10-02 00:04:28 20.6 44 18.2
00393932 2018-10-01 22:57:21 20.6 44 18.7
00393932 2018-10-01 21:50:17 20.6 44 18.1
00393932 2018-10-01 20:43:15 20.6 44 18.9
00393932 2018-10-01 19:36:06 20.4 44 17.5
00393932 2018-10-01 18:29:02 20.4 44 11.2
00393932 2018-10-01 17:22:01 20.2 43 13.5
00393932 2018-10-01 16:15:00 20.6 44 0